{"data":{"norad_id":62969,"epoch":"2026-09-21T20:35:31.956000Z","epoch_age_seconds":47764,"freshness":"FRESH","line1":"1 62969U 25029X   26264.85800875  .00020745  00000+0  62417-3 0  9991","line2":"2 62969  53.1606  39.0166 0001643  76.2005 283.9181 15.34361517 91383","mean_motion":15.34361517,"eccentricity":0.0001643,"inclination_deg":53.1606,"raan_deg":39.0166,"arg_perigee_deg":76.2005,"mean_anomaly_deg":283.9181,"bstar":0.00062417,"rev_number":9138,"period_min":93.850111857309,"perigee_km":461.69365333921,"apogee_km":463.94159102806,"semimajor_km":6840.9546221836,"source":"CELESTRAK","updated_at":"2026-09-22T09:00:49.715680Z"}}